Location: Camp Crooked Creek
(37.9149°N, 85.6607°W)
Time: 12:25:28
(UTC-04:00)

Amateur Radio Satellites - All Passes

Search period start: 30 May 2016 11:55
Search period end: 31 May 2016 11:55
Location: Camp Crooked Creek, 37.9149°N, 85.6607°W

Satellite Date Start Highest point End Downlink Frequencies (MHz)
Time Altitude Azimuth
ESTCUBE 1 30 May 12:03:10 12:05:40 14° 92° (E) 12:08:08 437.505/2401.250
VELOX 1 30 May 12:13:22 12:14:43 11° 91° (E) 12:16:05 145.980
Cosmos 2499 30 May 12:14:27 12:20:53 24° 278° (W) 12:27:25 435.465 / 435.565
HO-68 30 May 12:17:45 12:20:00 12° 308° (NW) 12:22:15 435.675
DUCHIFAT 1 30 May 12:25:44 12:29:56 76° 76° (ENE) 12:34:09 145.980
UNISAT 6 30 May 12:26:29 12:29:15 17° 266° (W) 12:32:01 437.425
BEESAT 2 30 May 12:27:19 12:31:13 56° 303° (WNW) 12:35:09 435.950
FUNcube-1 30 May 12:29:23 12:31:15 13° 294° (WNW) 12:33:09 145.935
BUGSAT 1 30 May 12:31:24 12:35:18 39° 72° (ENE) 12:39:11 437.445
TIGRISAT 30 May 12:33:18 12:35:47 15° 267° (W) 12:38:14 435.000
UKube-1 30 May 12:39:55 12:42:27 15° 93° (E) 12:44:57 .
AISAT 30 May 12:47:41 12:51:35 30° 97° (E) 12:55:26 437.250
CUSAT 1 30 May 12:54:45 13:01:12 65° 282° (WNW) 13:09:00 437.405
50 SAT 30 May 12:57:01 13:00:35 42° 99° (E) 13:04:08 437.505
BEESAT 3 30 May 12:57:37 13:00:17 17° 312° (NW) 13:02:58 437.485
POPSAT HIP 1 30 May 13:08:05 13:11:50 30° 263° (W) 13:15:35 437.405
QB50P1 30 May 13:08:12 13:11:55 30° 263° (W) 13:15:39 145.935-145.965
HUMSAT D 30 May 13:09:43 13:12:24 17° 293° (WNW) 13:15:06 437.325/437.525
QB50P2 30 May 13:11:50 13:15:23 26° 264° (W) 13:18:56 145.880/145.840
POLYITAN 1 30 May 13:14:22 13:17:52 25° 264° (W) 13:21:23 437.675
DANDE 30 May 13:17:17 13:22:53 85° 278° (W) 13:30:18 436.750
JAS-2 30 May 13:20:20 13:27:34 58° 70° (ENE) 13:35:14 435.910
AIST 2 30 May 13:24:51 13:28:31 31° 114° (ESE) 13:32:11 435.215
NANOSAT C BR1 30 May 13:25:30 13:28:39 20° 265° (W) 13:31:49 145.865
DX 1 30 May 13:30:59 13:35:21 76° 102° (ESE) 13:39:41 434.975-435.025
CUBEBUG 1 30 May 13:31:53 13:36:16 82° 284° (WNW) 13:40:35 437.445
ESTCUBE 1 30 May 13:38:20 13:42:42 48° 287° (WNW) 13:47:03 437.505/2401.250
SPROUT 30 May 13:44:40 13:48:49 51° 100° (E) 13:52:56 437.525
VELOX 1 30 May 13:47:12 13:51:32 58° 286° (WNW) 13:55:50 145.980
TISAT 1 30 May 13:58:14 14:01:06 18° 94° (E) 14:03:57 437.305
Oscar 19 30 May 14:01:44 14:06:47 55° 73° (ENE) 14:11:52 437.125/150
BUGSAT 1 30 May 14:08:20 14:10:48 15° 267° (W) 14:13:16 437.445
UKube-1 30 May 14:14:35 14:18:40 41° 288° (WNW) 14:22:42 .
AISAT 30 May 14:24:29 14:27:52 22° 292° (WNW) 14:31:14 437.250
50 SAT 30 May 14:32:30 14:33:55 12° 294° (WNW) 14:35:20 437.505
CUSAT 1 30 May 14:42:41 14:45:06 12° 303° (WNW) 14:47:39 437.405
Gurwin Techsat 1B 30 May 14:49:29 14:54:44 66° 74° (ENE) 15:00:00 435.225
ITAMSAT 1 30 May 14:51:11 14:55:24 26° 67° (ENE) 14:59:39 435.822/435.867
AO-85 30 May 14:55:20 14:59:42 39° 53° (NE) 15:03:41 145.980
BEESAT 30 May 15:02:33 15:05:47 18° 94° (E) 15:09:00 436.000
AIST 2 30 May 15:03:43 15:07:01 23° 310° (NW) 15:10:21 435.215
DANDE 30 May 15:04:07 15:07:17 14° 302° (WNW) 15:10:47 436.750
JAS-2 30 May 15:06:44 15:12:53 28° 268° (W) 15:19:23 435.910
SPROUT 30 May 15:22:22 15:24:18 13° 295° (WNW) 15:26:15 437.525
AO-7 30 May 15:29:13 15:36:34 37° 61° (ENE) 15:43:58 29.400- 29.500
TISAT 1 30 May 15:33:05 15:36:49 32° 289° (WNW) 15:40:31 437.305
Oscar 19 30 May 15:43:16 15:46:25 16° 268° (W) 15:49:35 437.125/150
YUBILEINY 30 May 15:44:28 15:51:03 25° 82° (E) 15:57:38 435.215
Cosmos 2491 30 May 15:45:57 15:54:34 59° 79° (E) 16:03:06 435.465 / 435.565
RS-15 30 May 15:57:58 16:04:54 19° 98° (E) 16:11:58 29.354- 29.394
SWISSCUBE 30 May 16:09:38 16:14:27 79° 285° (WNW) 16:19:15 437.505
ITUPSAT 1 30 May 16:17:34 16:22:23 75° 285° (WNW) 16:27:11 437.325
ITAMSAT 1 30 May 16:30:00 16:34:41 35° 262° (W) 16:39:25 435.822/435.867
Gurwin Techsat 1B 30 May 16:32:28 16:35:06 14° 269° (W) 16:37:45 435.225
AO-85 30 May 16:36:40 16:39:46 19° 252° (WSW) 16:42:41 145.980
BEESAT 30 May 16:39:12 16:43:43 43° 289° (WNW) 16:48:14 436.000
KKS-1 30 May 16:42:47 16:46:21 23° 96° (E) 16:49:54 437.445
Cosmos 2504 30 May 16:43:32 16:45:46 12° 76° (ENE) 16:48:02 435.465 / 435.565
HORYU 2 30 May 17:05:20 17:09:16 32° 70° (ENE) 17:13:12 437.375
STARS 30 May 17:09:39 17:13:08 23° 96° (E) 17:16:35 437.465
MOZHAYETS 4 30 May 17:21:05 17:25:36 50° 99° (E) 17:30:06
AO-7 30 May 17:21:11 17:29:05 48° 259° (WSW) 17:37:04 29.400- 29.500
NOAA 15 30 May 17:29:37 17:32:02 13° 61° (ENE) 17:34:26 137.62
YUBILEINY 30 May 17:38:30 17:47:04 64° 280° (W) 17:55:43 435.215
Cosmos 2491 30 May 17:43:49 17:50:44 27° 277° (W) 17:57:40 435.465 / 435.565
Cubesat XI-IV 30 May 17:46:30 17:48:44 13° 61° (ENE) 17:50:58 437.490
RS-15 30 May 18:04:03 18:15:20 85° 118° (ESE) 18:27:19 29.354- 29.394
LilacSat-2 30 May 18:08:04 18:09:21 11° 66° (ENE) 18:10:39 437.200
NOAA 18 30 May 18:09:07 18:13:38 27° 66° (ENE) 18:18:09 137.9125
KKS-1 30 May 18:19:05 18:22:52 28° 291° (WNW) 18:26:38 437.445
CUTE-I 30 May 18:28:50 18:33:29 32° 68° (ENE) 18:38:09 437.470
Cosmos 2504 30 May 18:30:27 18:37:41 84° 95° (E) 18:45:21 435.465 / 435.565
BRITE-PL 30 May 18:39:46 18:45:11 47° 72° (ENE) 18:50:36 437.365/2234.400
HORYU 2 30 May 18:42:33 18:45:51 20° 265° (W) 18:49:09 437.375
STARS 30 May 18:45:43 18:49:27 28° 291° (WNW) 18:53:10 437.465
PCSat 30 May 18:47:48 18:52:50 37° 55° (NE) 18:57:50 145.827
GOMX 1 30 May 18:48:22 18:52:56 28° 69° (ENE) 18:57:23 467.674
CUBESAT XI-V 30 May 18:55:23 19:00:02 57° 100° (E) 19:04:38 437.345
MOZHAYETS 4 30 May 18:59:36 19:02:20 16° 295° (WNW) 19:05:04
NOAA 15 30 May 19:05:47 19:11:05 78° 256° (WSW) 19:16:27 137.62
HO-68 30 May 19:09:37 19:13:03 14° 54° (NE) 19:16:28 435.675
DOVE 4 30 May 19:20:39 19:24:54 26° 69° (ENE) 19:29:00 437.250
Cubesat XI-IV 30 May 19:22:46 19:28:05 80° 257° (WSW) 19:33:26 437.490
BEESAT 3 30 May 19:38:20 19:40:51 16° 47° (NE) 19:43:21 437.485
LilacSat-2 30 May 19:39:37 19:43:15 44° 261° (W) 19:46:53 437.200
YUBILEINY 30 May 19:44:16 19:45:48 10° 302° (WNW) 19:47:19 435.215
O/OREOS (USA 219) 30 May 19:47:52 19:52:20 65° 68° (ENE) 19:56:45 437.305
AUBIESAT-1 30 May 19:47:58 19:50:24 16° 64° (ENE) 19:52:46 437.475
NOAA 18 30 May 19:49:05 19:54:06 37° 262° (W) 19:59:07 137.9125
M-CUBED/EXP-1 PRIME 30 May 19:56:43 20:00:04 25° 67° (ENE) 20:03:14 437.505
STRAND 1 30 May 19:58:28 20:02:07 19° 94° (E) 20:05:45 437.568
SEEDS 30 May 20:02:25 20:03:39 11° 64° (ENE) 20:04:53 437.485
CANX-2 30 May 20:04:40 20:07:41 19° 68° (ENE) 20:10:43 2200.000
CUTE-I 30 May 20:08:55 20:13:28 29° 264° (W) 20:18:05 437.470
BRITE-PL 30 May 20:19:24 20:23:47 23° 267° (W) 20:28:12 437.365/2234.400
RS-15 30 May 20:19:26 20:29:23 32° 324° (NW) 20:39:49 29.354- 29.394
GOMX 1 30 May 20:25:47 20:30:48 36° 263° (W) 20:35:44 467.674
PHONESAT 2.4 30 May 20:27:31 20:29:16 14° 146° (SE) 20:31:02 2401.200-2431.200
Cosmos 2504 30 May 20:27:56 20:32:09 16° 296° (WNW) 20:36:31 435.465 / 435.565
CUTE 1.7 + AOD 2 30 May 20:30:23 20:34:08 33° 72° (ENE) 20:37:55 437.475
PCSat 30 May 20:31:29 20:36:03 28° 252° (WSW) 20:40:37 145.827
CUBESAT XI-V 30 May 20:34:26 20:36:54 14° 296° (WNW) 20:39:22 437.345
AAUSAT CUBESAT 2 30 May 20:39:37 20:42:17 17° 67° (ENE) 20:44:58 437.432
COMPASS 1 30 May 20:39:59 20:43:08 21° 69° (ENE) 20:46:18 437.405
BEESAT 2 30 May 20:46:57 20:50:48 45° 56° (NE) 20:54:37 435.950
HO-68 30 May 20:52:29 20:59:37 78° 72° (ENE) 21:06:47 435.675
DOVE 4 30 May 20:57:43 21:02:25 34° 263° (W) 21:06:58 437.250
AIST 1 30 May 20:57:54 21:00:56 19° 87° (E) 21:04:00
CINEMA 3 30 May 21:02:55 21:07:39 88° 75° (ENE) 21:12:11 145.822/145.860
ISS 30 May 21:09:33 21:12:48 88° 301° (WNW) 21:16:05 145.825
ZACube-1 30 May 21:11:06 21:13:11 14° 66° (ENE) 21:15:16 437.345
BEESAT 3 30 May 21:15:00 21:18:46 45° 244° (WSW) 21:22:31 437.485
AUBIESAT-1 30 May 21:20:54 21:24:41 36° 256° (WSW) 21:28:13 437.475
CUBEBUG 2 30 May 21:29:31 21:33:44 50° 74° (ENE) 21:37:50 437.445
M-CUBED/EXP-1 PRIME 30 May 21:31:14 21:34:33 23° 258° (WSW) 21:37:41 437.505
GONETS M04 30 May 21:34:32 21:41:48 30° 84° (E) 21:49:03
SEEDS 30 May 21:34:43 21:38:49 58° 260° (W) 21:42:58 437.485
STRAND 1 30 May 21:36:34 21:41:29 46° 288° (WNW) 21:46:22 437.568
CANX-2 30 May 21:39:34 21:43:18 31° 263° (W) 21:47:05 2200.000
FUNcube-1 30 May 21:45:24 21:49:06 31° 72° (ENE) 21:52:46 145.935
AIST 2 30 May 21:48:27 21:50:53 15° 46° (NE) 21:53:17 435.215
UWE-3 30 May 21:50:40 21:54:53 60° 75° (ENE) 21:59:01 435.000/436.395/437.385
CUSAT 1 30 May 21:52:47 21:56:52 15° 59° (ENE) 22:00:33 437.405
PHONESAT 2.4 30 May 22:02:31 22:05:38 70° 160° (SSE) 22:08:46 2401.200-2431.200
CUTE 1.7 + AOD 2 30 May 22:07:08 22:10:02 18° 267° (W) 22:12:58 437.475
AAUSAT CUBESAT 2 30 May 22:13:41 22:17:28 35° 262° (W) 22:21:18 437.432
PRISM 30 May 22:13:55 22:18:07 89° 291° (WNW) 22:22:15 437.425
DELFI C3 30 May 22:14:36 22:18:14 36° 72° (ENE) 22:21:54 145.870
COMPASS 1 30 May 22:14:58 22:18:32 27° 264° (W) 22:22:06 437.405
DANDE 30 May 22:17:57 22:22:22 15° 59° (ENE) 22:26:33 436.750
HUMSAT D 30 May 22:23:29 22:26:30 20° 69° (ENE) 22:29:31 437.325/437.525
Oscar 11 30 May 22:23:29 22:27:45 75° 258° (WSW) 22:32:05 145.826/435.025
BEESAT 2 30 May 22:26:14 22:28:14 14° 251° (WSW) 22:30:14 435.950
AIST 1 30 May 22:34:18 22:38:15 32° 283° (WNW) 22:42:14
RS-15 30 May 22:40:12 22:47:32 17° 359° (N) 22:54:59 29.354- 29.394
HO-68 30 May 22:43:37 22:47:59 17° 269° (W) 22:52:22 435.675
ZACube-1 30 May 22:45:02 22:49:05 46° 261° (W) 22:53:06 437.345
ISS 30 May 22:47:40 22:49:39 15° 338° (NNW) 22:51:38 145.825
Cosmos 2499 30 May 22:54:34 23:01:38 57° 91° (E) 23:09:14 435.465 / 435.565
ESTCUBE 1 30 May 23:02:19 23:03:53 12° 63° (ENE) 23:05:28 437.505/2401.250
CUBEBUG 2 30 May 23:08:53 23:10:36 12° 268° (W) 23:12:18 437.445
FUNcube-1 30 May 23:22:25 23:25:23 19° 266° (W) 23:28:20 145.935
ANTELSAT 30 May 23:22:47 23:26:24 25° 96° (E) 23:30:03 437.575/2403.000
AIST 2 30 May 23:25:37 23:29:41 56° 243° (WSW) 23:33:44 435.215
GONETS M04 30 May 23:29:33 23:38:06 54° 282° (WNW) 23:46:40
CUSAT 1 30 May 23:32:50 23:40:20 89° 81° (E) 23:46:14 437.405
UKube-1 30 May 23:34:19 23:35:38 11° 63° (ENE) 23:36:56 .
50 SAT 30 May 23:34:46 23:36:55 15° 68° (ENE) 23:39:05 437.505
PHONESAT 2.4 30 May 23:39:23 23:42:28 51° 356° (N) 23:45:32 2401.200-2431.200
SO-50 30 May 23:41:12 23:45:09 25° 111° (ESE) 23:49:07 436.795
AISAT 30 May 23:43:37 23:47:08 23° 68° (ENE) 23:50:39 437.250
DELFI C3 30 May 23:50:59 23:53:13 15° 267° (W) 23:55:29 145.870
DANDE 30 May 23:58:24 00:06:48 75° 80° (E) 00:13:56 436.750
HUMSAT D 30 May 23:58:27 00:01:57 27° 264° (W) 00:05:28 437.325/437.525
DUCHIFAT 1 31 May 00:13:18 00:15:20 13° 92° (E) 00:17:23 145.980
UNISAT 6 31 May 00:17:44 00:22:03 74° 285° (WNW) 00:26:27 437.425
TIGRISAT 31 May 00:24:03 00:28:20 66° 285° (WNW) 00:32:42 435.000
DX 1 31 May 00:24:30 00:28:44 51° 73° (ENE) 00:33:00 434.975-435.025
CUBEBUG 1 31 May 00:25:38 00:30:01 65° 75° (ENE) 00:34:26 437.445
ESTCUBE 1 31 May 00:35:37 00:40:06 66° 259° (W) 00:44:38 437.505/2401.250
SPROUT 31 May 00:36:36 00:40:23 31° 71° (ENE) 00:44:10 437.525
VELOX 1 31 May 00:42:14 00:46:42 83° 257° (WSW) 00:51:11 145.980
Cosmos 2499 31 May 00:49:29 00:55:16 25° 291° (WNW) 01:01:26 435.465 / 435.565
TISAT 1 31 May 00:49:47 00:51:17 12° 64° (ENE) 00:52:48 437.305
POPSAT HIP 1 31 May 00:54:03 00:58:06 45° 99° (E) 01:02:07 437.405
QB50P1 31 May 00:54:05 00:58:08 46° 99° (E) 01:02:10 145.935-145.965
RS-15 31 May 00:55:41 01:06:00 30° 34° (NE) 01:16:19 29.354- 29.394
QB50P2 31 May 00:57:39 01:01:47 54° 100° (E) 01:05:55 145.880/145.840
ANTELSAT 31 May 00:59:27 01:03:01 26° 290° (WNW) 01:06:39 437.575/2403.000
POLYITAN 1 31 May 01:00:07 01:04:15 56° 100° (E) 01:08:23 437.675
UKube-1 31 May 01:06:49 01:11:07 64° 259° (W) 01:15:26 .
50 SAT 31 May 01:07:11 01:10:23 29° 263° (W) 01:13:37 437.505
NANOSAT C BR1 31 May 01:10:18 01:14:29 70° 102° (ESE) 01:18:39 145.865
PHONESAT 2.4 31 May 01:16:15 01:19:23 72° 13° (NNE) 01:22:30 2401.200-2431.200
CUSAT 1 31 May 01:17:50 01:20:56 13° 283° (WNW) 01:23:48 437.405
AISAT 31 May 01:19:31 01:23:26 30° 263° (W) 01:27:23 437.250
SO-50 31 May 01:20:52 01:25:27 38° 307° (NW) 01:30:02 436.795
DANDE 31 May 01:42:52 01:48:34 21° 279° (W) 01:53:47 436.750
DUCHIFAT 1 31 May 01:47:16 01:51:15 44° 287° (WNW) 01:55:13 145.980
ITUPSAT 1 31 May 01:48:51 01:49:59 11° 61° (ENE) 01:51:07 437.325
BUGSAT 1 31 May 01:49:53 01:53:55 87° 102° (ESE) 01:57:55 437.445
DX 1 31 May 02:03:15 02:05:12 13° 268° (W) 02:07:09 434.975-435.025
ISS 31 May 02:03:38 02:05:00 12° 19° (NNE) 02:06:21 145.825
CUBEBUG 1 31 May 02:06:34 02:06:42 10° 270° (W) 02:06:51 437.445
BEESAT 31 May 02:07:40 02:10:48 18° 65° (ENE) 02:13:58 436.000
SPROUT 31 May 02:13:11 02:16:21 20° 265° (W) 02:19:32 437.525
Oscar 19 31 May 02:15:50 02:19:47 22° 94° (E) 02:23:43 437.125/150
JAS-2 31 May 02:17:51 02:24:59 58° 99° (E) 02:31:15 435.910
TISAT 1 31 May 02:22:17 02:26:27 57° 260° (W) 02:30:35 437.305
POPSAT HIP 1 31 May 02:31:17 02:33:29 14° 294° (WNW) 02:35:39 437.405
QB50P1 31 May 02:31:22 02:33:30 14° 295° (WNW) 02:35:37 145.935-145.965
QB50P2 31 May 02:35:30 02:37:06 12° 296° (WNW) 02:38:41 145.880/145.840
POLYITAN 1 31 May 02:38:05 02:39:33 12° 296° (WNW) 02:41:03 437.675
PHONESAT 2.4 31 May 02:53:13 02:55:58 28° 208° (SSW) 02:58:42 2401.200-2431.200
Cosmos 2491 31 May 02:55:28 02:57:52 11° 75° (ENE) 03:00:15 435.465 / 435.565
Gurwin Techsat 1B 31 May 03:07:52 03:12:31 30° 96° (E) 03:17:07 435.225
RS-15 31 May 03:08:06 03:20:31 85° 60° (ENE) 03:32:48 29.354- 29.394
SWISSCUBE 31 May 03:14:08 03:18:53 85° 256° (WSW) 03:23:40 437.505
ITUPSAT 1 31 May 03:22:21 03:27:07 79° 258° (WSW) 03:31:55 437.325
ISS 31 May 03:38:49 03:42:02 54° 37° (NE) 03:45:14 145.825
KKS-1 31 May 03:39:40 03:42:45 19° 66° (ENE) 03:45:51 437.445
BEESAT 31 May 03:43:40 03:48:13 45° 261° (W) 03:52:47 436.000
YUBILEINY 31 May 03:50:38 03:59:17 60° 79° (E) 04:07:57 435.215
Oscar 19 31 May 03:54:26 03:59:13 40° 290° (WNW) 04:03:57 437.125/150
JAS-2 31 May 04:03:42 04:09:22 25° 299° (WNW) 04:14:34 435.910
STARS 31 May 04:05:13 04:08:08 18° 66° (ENE) 04:11:04 437.465
MOZHAYETS 4 31 May 04:21:14 04:25:26 38° 71° (ENE) 04:29:39
Cosmos 2504 31 May 04:24:25 04:31:41 30° 72° (ENE) 04:39:08 435.465 / 435.565
ITAMSAT 1 31 May 04:43:54 04:49:09 87° 285° (WNW) 04:54:23 435.822/435.867
Cosmos 2491 31 May 04:44:15 04:53:00 72° 93° (E) 05:01:47 435.465 / 435.565
Gurwin Techsat 1B 31 May 04:47:44 04:52:23 32° 292° (WNW) 04:57:02 435.225
AO-85 31 May 05:07:29 05:11:47 24° 110° (ESE) 05:16:03 145.980
KKS-1 31 May 05:14:52 05:19:02 38° 261° (W) 05:23:12 437.445
ISS 31 May 05:16:28 05:18:08 13° 232° (SW) 05:19:46 145.825
RS-15 31 May 05:22:31 05:31:30 25° 260° (W) 05:40:26 29.354- 29.394
AO-7 31 May 05:24:07 05:32:28 67° 105° (ESE) 05:40:46 29.400- 29.500
STARS 31 May 05:40:03 05:44:11 39° 261° (W) 05:48:19 437.465
JUGNU 31 May 05:42:48 05:43:54 10° 170° (S) 05:45:01 437.505
YUBILEINY 31 May 05:48:31 05:55:25 27° 277° (W) 06:02:22 435.215
CUBESAT XI-V 31 May 05:56:45 06:01:11 44° 73° (ENE) 06:05:40 437.345
MOZHAYETS 4 31 May 05:59:33 06:02:42 18° 267° (W) 06:05:54
Cosmos 2504 31 May 06:17:04 06:25:25 59° 269° (W) 06:34:04 435.465 / 435.565
ITAMSAT 1 31 May 06:26:51 06:27:48 10° 301° (WNW) 06:28:44 435.822/435.867
HORYU 2 31 May 06:33:42 06:38:09 84° 103° (ESE) 06:42:36 437.375
NOAA 18 31 May 06:34:27 06:36:34 12° 91° (E) 06:38:39 137.9125
Cosmos 2491 31 May 06:44:00 06:50:38 23° 293° (WNW) 06:57:17 435.465 / 435.565
AO-85 31 May 06:46:47 06:52:02 47° 305° (NW) 06:57:11 145.980
BRITE-PL 31 May 06:48:42 06:51:29 15° 90° (E) 06:54:09 437.365/2234.400
CUTE-I 31 May 06:48:48 06:51:38 14° 91° (E) 06:54:27 437.470
STRAND 1 31 May 07:12:42 07:16:42 24° 66° (ENE) 07:20:43 437.568
LilacSat-2 31 May 07:15:11 07:18:02 20° 95° (E) 07:20:53 437.200
AO-7 31 May 07:17:53 07:24:34 28° 303° (WNW) 07:31:16 29.400- 29.500
NOAA 15 31 May 07:22:53 07:27:58 46° 99° (E) 07:32:59 137.62
JUGNU 31 May 07:29:23 07:32:02 13° 181° (S) 07:34:41 437.505
CUBESAT XI-V 31 May 07:35:48 07:38:45 17° 268° (W) 07:41:45 437.345
Cubesat XI-IV 31 May 07:41:51 07:47:02 47° 100° (E) 07:52:11 437.490
SRMSAT 31 May 07:44:38 07:44:50 10° 169° (S) 07:45:02 437.500
GONETS M04 31 May 07:48:40 07:51:51 12° 60° (ENE) 07:55:01
NOAA 18 31 May 08:12:15 08:17:45 77° 286° (WNW) 08:23:14 137.9125
SO-50 31 May 08:14:34 08:17:30 16° 44° (NE) 08:20:22 436.795
HO-68 31 May 08:24:24 08:28:19 15° 91° (E) 08:32:12 435.675
BRITE-PL 31 May 08:25:35 08:30:21 48° 287° (WNW) 08:34:43 437.365/2234.400
CUTE-I 31 May 08:26:46 08:32:05 65° 287° (WNW) 08:37:23 437.470
GOMX 1 31 May 08:29:41 08:34:14 85° 101° (ESE) 08:38:30 467.674
AIST 1 31 May 08:42:41 08:46:54 48° 80° (E) 08:51:02
Cosmos 2499 31 May 08:47:52 08:54:01 21° 67° (ENE) 09:00:12 435.465 / 435.565
LilacSat-2 31 May 08:49:13 08:52:16 24° 289° (WNW) 08:55:19 437.200
STRAND 1 31 May 08:50:55 08:55:37 37° 262° (W) 09:00:22 437.568
DOVE 4 31 May 08:58:20 09:02:38 79° 102° (ESE) 09:06:47 437.250
CINEMA 3 31 May 09:00:10 09:03:20 21° 95° (E) 09:06:30 145.822/145.860
PRISM 31 May 09:01:21 09:05:21 49° 73° (ENE) 09:09:24 437.425
AUBIESAT-1 31 May 09:02:59 09:03:57 11° 99° (E) 09:04:55 437.475
NOAA 15 31 May 09:03:29 09:07:23 21° 295° (WNW) 09:11:17 137.62
M-CUBED/EXP-1 PRIME 31 May 09:11:59 09:14:22 18° 101° (E) 09:16:46 437.505
SEEDS 31 May 09:20:42 09:24:15 25° 96° (E) 09:27:47 437.485
Cubesat XI-IV 31 May 09:22:48 09:26:43 21° 295° (WNW) 09:30:39 437.490
CUBEBUG 2 31 May 09:24:05 09:25:25 11° 92° (E) 09:26:44 437.445
CANX-2 31 May 09:25:44 09:29:53 47° 99° (E) 09:34:02 2200.000
PCSat 31 May 09:27:27 09:32:37 47° 112° (ESE) 09:37:49 145.827
SRMSAT 31 May 09:30:28 09:33:06 13° 180° (S) 09:35:46 437.500
GONETS M04 31 May 09:41:41 09:50:23 71° 81° (E) 09:59:02
UWE-3 31 May 09:43:25 09:45:28 13° 92° (E) 09:47:33 435.000/436.395/437.385
CUTE 1.7 + AOD 2 31 May 09:52:05 09:56:24 86° 105° (ESE) 10:00:41 437.475
SO-50 31 May 09:53:49 09:58:28 66° 242° (WSW) 10:02:56 436.795
AAUSAT CUBESAT 2 31 May 09:57:24 10:01:20 37° 98° (E) 10:05:13 437.432
O/OREOS (USA 219) 31 May 09:58:05 10:02:38 75° 291° (WNW) 10:07:11 437.305
COMPASS 1 31 May 09:58:48 10:02:56 50° 100° (E) 10:07:01 437.405
HO-68 31 May 10:09:34 10:16:46 85° 287° (WNW) 10:23:58 435.675
Oscar 11 31 May 10:13:01 10:16:26 22° 95° (E) 10:19:50 145.826/435.025
ANTELSAT 31 May 10:20:42 10:23:41 18° 68° (ENE) 10:26:39 437.575/2403.000
AIST 1 31 May 10:22:21 10:23:58 12° 275° (W) 10:25:35
ZACube-1 31 May 10:34:48 10:38:40 34° 98° (E) 10:42:37 437.345
AUBIESAT-1 31 May 10:35:35 10:38:35 32° 292° (WNW) 10:41:37 437.475
CINEMA 3 31 May 10:36:58 10:40:28 27° 290° (WNW) 10:43:58 145.822/145.860
Cosmos 2499 31 May 10:39:18 10:48:03 83° 265° (W) 10:56:57 435.465 / 435.565
PRISM 31 May 10:39:22 10:40:56 12° 268° (W) 10:42:30 437.425
BEESAT 2 31 May 10:39:41 10:41:09 12° 108° (ESE) 10:42:39 435.950
M-CUBED/EXP-1 PRIME 31 May 10:46:30 10:48:53 19° 295° (WNW) 10:51:15 437.505
CUSAT 1 31 May 10:52:09 10:56:13 17° 79° (E) 11:00:37 437.405
SEEDS 31 May 10:56:23 10:59:50 24° 290° (WNW) 11:03:17 437.485
CUBEBUG 2 31 May 10:58:14 11:02:19 52° 285° (WNW) 11:06:27 437.445
CANX-2 31 May 11:03:03 11:05:19 14° 294° (WNW) 11:07:34 2200.000
BEESAT 3 31 May 11:03:45 11:07:28 42° 116° (ESE) 11:11:13 437.485
FUNcube-1 31 May 11:10:19 11:14:33 88° 98° (E) 11:18:52 145.935
PCSat 31 May 11:11:53 11:16:14 24° 309° (NW) 11:20:37 145.827
UNISAT 6 31 May 11:14:39 11:18:59 77° 75° (ENE) 11:23:16 437.425
UWE-3 31 May 11:18:07 11:22:08 45° 286° (WNW) 11:26:14 435.000/436.395/437.385
SRMSAT 31 May 11:20:29 11:21:24 10° 190° (S) 11:22:18 437.500
TIGRISAT 31 May 11:20:45 11:25:05 85° 80° (E) 11:29:23 435.000
DANDE 31 May 11:25:38 11:27:54 12° 75° (ENE) 11:30:19 436.750
DELFI C3 31 May 11:28:15 11:32:19 79° 103° (ESE) 11:36:20 145.870
AAUSAT CUBESAT 2 31 May 11:33:49 11:36:30 17° 293° (WNW) 11:39:09 437.432
COMPASS 1 31 May 11:36:03 11:38:01 13° 295° (WNW) 11:39:59 437.405
GONETS M04 31 May 11:40:08 11:46:16 22° 279° (W) 11:52:26
HUMSAT D 31 May 11:42:42 11:46:47 48° 99° (E) 11:50:52 437.325/437.525
QB50P1 31 May 11:45:00 11:48:36 28° 70° (ENE) 11:52:13 145.935-145.965
POPSAT HIP 1 31 May 11:45:03 11:48:38 27° 70° (ENE) 11:52:13 437.405
